Regional Weather Roundup
Issued by NWS

Home | Current Version | Previous Version | Graphics & Text | Print | Product List | Glossary On
Versions: 1 2 3 4 5 6 7 8 9 10 11 12 13 14 15 16 17 18 19 20 21 22 23 24 25 26 27 28 29 30 31 32 33 34 35 36 37 38 39 40 41 42 43 44 45 46 47 48 49 50
000
ASUS43 KLSX 280807
RWRMO

WEATHER SUMMARY FOR MISSOURI
NATIONAL WEATHER SERVICE SPRINGFIELD MO
300 AM CDT WED JUN 28 2017

NOTE: "FAIR" INDICATES FEW OR NO CLOUDS BELOW 12,000 FEET WITH NO
       SIGNIFICANT WEATHER AND/OR OBSTRUCTIONS TO VISIBILITY.
       CURRENT SKY AND/OR WEATHER CONDITIONS ARE NOT AVAILABLE FOR
       CHILLICOTHE AND FARMINGTON.

MOZ001>031-035>038-043-044-053-054-280900-
...NORTHERN AND WESTERN MISSOURI...

CITY           SKY/WX    TMP DP  RH WIND       PRES   REMARKS
KANSAS CTY INT CLOUDY    74  65  73 S22G28    29.85F
KANSAS C DTWN  MOCLDY    75  65  70 S17G24    29.85F
LEE`S SUMMIT   CLOUDY    73  65  75 S18G25    29.88F
ST JOSEPH      CLOUDY    75  66  73 S18G28    29.80F
CHILLICOTHE      N/A     73  65  75 S9G18     29.86F
KIRKSVILLE     CLOUDY    70  63  78 S14       29.90F

$$
MOZ066>068-077>081-088>096-101>105-280900-
...SOUTHWEST MISSOURI...

CITY           SKY/WX    TMP DP  RH WIND       PRES   REMARKS
SPRINGFIELD    CLEAR     69  63  81 S13       29.99R
JOPLIN         CLEAR     72  64  76 S10       29.94S

$$
MOZ032>034-039>042-045>050-055>058-069>072-280900-
...CENTRAL MISSOURI...

CITY           SKY/WX    TMP DP  RH WIND       PRES   REMARKS
COLUMBIA       PTCLDY    68  64  87 S13       29.96S
JEFFERSON CITY PTCLDY    70  63  78 SE8       29.97R
ROLLA          CLEAR     66  63  90 S12       29.99F
SEDALIA        PTCLDY    71  66  84 S12       29.94S
WHITEMAN AFB   PTCLDY    71  70  99 S13       29.89F
OSAGE BEACH    CLEAR     68  63  84 S8        29.98R

$$
MOZ051-052-059>065-280900-
...EAST CENTRAL MISSOURI...

CITY           SKY/WX    TMP DP  RH WIND       PRES   REMARKS
ST LOUIS INTL  PTCLDY    71  56  58 S8        30.00F
SPIRIT OF STL  CLEAR     68  60  75 SE5       29.98F
ST CHARLES     CLEAR     65  58  78 S3        29.99F

$$
MOZ072>076-082>087-097>100-106>115-280900-
...SOUTH CENTRAL AND SOUTHEAST MISSOURI...

CITY           SKY/WX    TMP DP  RH WIND       PRES   REMARKS
CAPE GIRARDEAU CLEAR     62  58  86 CALM      30.05S
FARMINGTON     CLEAR     60  57  89 S6        30.03F
POPLAR BLUFF   PTCLDY    64  64 100 CALM      30.03F
WEST PLAINS    CLEAR     66  63  90 S9        30.03F

$$




USA.gov is the U.S. government's official web portal to all federal, state and local government web resources and services.